Location: Unspecified
(0.0000°N, 0.0000°E)
Time: 16:19:44
(UTC+00:00)

HO-68 - Pass Details

Date: 06 June 2023
Orbit: 1193 x 1204 km, 100.3° (Epoch: 28 September)

Event Time Altitude Azimuth Distance (km) Brightness Sun altitude
Rises 02:20:04 0° 30° (NNE) 4,089 ? -48.8°
Reaches altitude 10° 02:22:52 10° 37° (NE) 3,126 ? -48.3°
Enters shadow 02:26:01 26° 54° (NE) 2,170 ? -47.6°
